Theta_e
296 296 297 296 297 298 299 303 306 306 306 308 308 308 307 306 307 307 308 309 310 312 313 314 314 314 316 319 318 319 317 320 324 320 315 315 316 318 317 320 319 321 322 321
295 296 296 297 296 297 300 303 305 304 306 307 307 306 307 307 307 307 306 308 309 310 311 313 313 314 314 317 318 318 316 319 326 322 320 318 313 313 314 316 319 319 322 320
297 297 297 297 296 296 299 301 302 304 306 305 305 305 307 307 305 305 306 307 307 308 311 311 312 314 311 315 315 314 314 315 319 323 321 319 319 317 318 318 317 317 318 317
297 297 297 297 297 296 298 302 302 303 305 304 305 304 305 306 306 306 306 307 307 308 310 311 312 312 312 312 314 311 312 317 316 317 317 315 315 315 317 319 320 318 317 316
295 296 296 296 296 296 297 299 301 300 301 302 302 304 304 302 302 303 305 305 306 308 310 310 311 311 312 313 312 313 314 315 314 316 315 313 313 313 314 315 317 317 320 319
294 294 295 294 295 296 297 297 298 301 300 301 301 302 302 302 303 303 303 304 307 307 308 309 309 310 311 311 313 314 312 313 317 317 312 313 316 314 315 315 316 317 319 318
294 295 294 295 295 294 296 297 299 301 301 300 300 300 300 300 300 302 302 304 305 304 304 306 308 309 309 310 311 313 313 313 314 316 315 317 313 311 312 313 313 315 315 316
295 295 295 295 294 295 296 296 298 300 302 299 299 299 299 299 301 301 301 303 304 305 303 307 311 309 309 309 308 311 309 311 314 315 316 313 310 310 311 314 314 313 313 312
296 295 295 295 295 296 295 297 297 298 300 300 298 299 299 301 302 302 302 303 305 306 306 307 308 306 304 304 305 311 311 311 312 311 313 311 309 308 310 312 313 312 312 313
295 295 294 294 295 295 296 297 297 297 298 298 298 300 299 299 300 301 303 303 305 307 307 307 306 306 303 305 306 308 311 312 314 313 313 310 308 308 310 311 311 312 314 313
295 294 295 294 294 295 295 296 295 296 297 297 297 298 299 300 300 299 299 304 306 306 308 307 306 306 305 306 306 307 309 312 312 311 311 310 309 308 309 311 312 313 313 314
294 294 294 293 293 294 295 296 295 295 295 297 297 299 299 299 300 299 301 303 304 306 306 306 306 306 306 305 308 307 308 309 311 310 310 310 310 310 313 313 312 311 311 311
293 293 293 293 293 293 294 296 295 295 294 296 296 298 298 299 299 299 301 302 303 302 305 304 303 303 305 306 306 307 306 307 310 310 310 309 311 311 311 309 310 310 310 308
293 293 293 292 293 295 295 296 295 293 294 299 299 298 299 298 298 300 300 302 303 302 304 304 303 303 302 303 304 306 308 307 308 309 308 308 308 309 311 309 307 308 308 307
293 291 291 292 293 294 295 295 295 296 297 301 299 298 298 300 300 300 300 301 303 304 304 304 304 302 303 304 303 305 304 308 309 308 308 308 306 310 310 308 306 306 305 304
293 292 292 292 293 292 295 296 296 296 296 298 298 298 299 299 300 300 301 303 303 304 304 306 304 303 305 305 305 303 303 305 307 307 307 310 311 308 308 308 307 305 304 302
292 292 292 293 293 293 296 297 295 296 297 300 298 299 299 299 300 302 302 302 304 305 303 304 303 304 304 306 307 304 304 305 304 308 308 308 307 307 306 308 307 304 303 301
292 292 292 293 293 293 294 295 294 295 295 298 298 298 301 302 303 303 303 303 303 303 303 303 303 303 304 304 301 302 303 304 304 305 307 306 304 304 304 303 302 302 300 299
292 293 292 293 293 294 294 295 295 295 295 298 298 298 299 301 302 303 302 302 304 302 303 302 302 303 304 303 302 303 303 303 304 306 305 304 303 303 302 301 301 301 298 296
292 292 293 294 294 295 295 295 297 296 296 296 297 299 300 300 301 302 303 301 303 305 303 302 303 303 303 303 303 304 304 303 305 307 305 304 303 303 303 302 300 298 297 296
292 294 295 294 296 295 297 297 296 297 297 297 297 298 299 301 303 303 302 303 304 305 305 305 306 305 304 304 305 305 305 304 305 306 304 304 303 302 301 300 299 298 297 295
293 295 295 295 297 297 297 297 298 299 299 300 300 301 302 302 302 303 304 303 304 305 305 306 306 306 304 304 305 305 304 305 305 304 303 303 302 301 301 300 299 297 294 289
294 294 296 298 298 298 298 299 300 301 302 302 303 303 302 300 301 302 303 304 305 304 306 305 306 303 304 304 306 305 305 305 304 303 303 303 302 301 300 298 294 289 287 285
296 296 297 298 298 298 299 300 301 301 300 301 302 301 301 301 302 303 303 304 303 302 303 304 304 302 304 305 305 305 304 303 302 304 302 300 298 294 292 290 287 285 284 283
297 298 299 299 300 302 302 303 302 302 302 303 302 302 303 304 304 302 303 304 303 304 306 306 302 302 304 303 304 303 300 297 298 296 293 290 290 289 288 287 286 284 283 282
297 299 300 301 303 302 304 302 303 301 302 303 303 304 305 304 304 305 304 303 302 306 302 299 298 300 301 302 300 298 296 294 292 291 290 289 288 288 287 286 284 283 282 282
298 299 301 300 301 300 301 301 301 300 301 304 304 305 304 304 304 304 303 305 304 300 298 296 295 296 297 295 294 293 292 292 291 290 289 289 287 286 285 284 283 283 282 282
Wind_Speed
9 8 8 8 6 4 5 5 4 2 13 6 3 11 20 20 25 21 22 21 23 22 22 23 22 24 16 9 17 8 10 7 13 22 10 10 13 12 15 5 12 7 9 17
11 11 9 8 7 5 7 3 3 4 5 5 9 16 22 25 25 23 26 24 22 21 22 21 20 21 20 9 5 5 8 4 4 12 17 17 7 12 8 6 4 14 12 18
12 11 10 9 8 7 5 0 2 3 3 4 6 13 14 21 25 26 26 24 23 23 22 20 20 25 19 9 4 6 3 4 5 8 10 9 5 17 20 15 7 17 17 23
13 12 12 10 9 8 7 2 5 7 4 8 15 15 12 17 12 18 21 23 26 24 23 22 23 22 21 18 15 7 9 5 10 19 27 27 22 18 17 21 20 20 20 22
14 13 14 13 12 11 11 4 4 4 11 16 18 15 19 25 26 21 25 22 21 19 25 23 21 21 19 14 7 6 6 9 12 11 17 23 25 21 20 24 23 22 23 26
14 14 16 15 15 15 11 12 17 4 9 15 15 17 18 22 21 21 19 18 14 16 21 29 23 18 14 14 11 12 7 4 3 6 18 18 12 18 21 22 23 19 20 21
17 15 16 17 18 19 20 14 7 4 11 12 17 22 22 25 25 24 22 18 16 23 16 25 25 8 15 17 16 11 11 8 4 10 13 12 6 14 19 21 21 18 18 20
20 17 17 18 20 22 23 21 7 3 6 13 19 22 23 25 23 24 24 23 18 12 4 7 8 12 11 18 21 12 10 4 3 3 5 9 18 14 12 13 15 15 11 16
22 21 19 21 22 25 24 22 19 5 5 15 22 19 21 16 16 19 25 23 20 9 5 10 14 12 15 11 15 21 19 17 10 7 7 8 14 17 13 10 7 11 17 15
23 21 19 17 17 20 22 12 20 9 5 18 16 14 14 16 18 13 19 14 21 15 11 9 9 6 16 15 19 18 10 5 15 14 9 8 17 20 14 17 13 9 9 12
21 19 18 17 17 18 19 10 19 15 4 16 19 22 18 17 10 14 16 13 11 5 5 8 9 9 12 15 22 20 12 8 9 6 7 10 11 14 16 12 11 7 6 5
19 18 17 16 16 18 19 10 14 21 6 5 12 20 29 28 27 9 7 16 10 4 3 2 3 5 5 10 3 13 15 10 8 10 7 9 11 12 8 10 3 3 2 9
16 16 16 15 15 16 21 16 11 12 3 6 11 17 31 27 28 26 4 3 5 1 5 1 2 6 3 5 9 14 16 15 9 8 14 21 15 10 3 7 10 4 2 11
17 17 15 14 13 15 19 20 17 7 3 4 8 21 23 25 25 25 21 17 2 3 2 2 3 4 4 5 5 9 13 12 10 9 9 11 11 26 10 11 5 4 5 10
21 18 13 12 12 13 14 20 22 18 5 4 7 21 18 15 17 19 18 14 11 3 2 4 5 5 8 8 11 11 12 11 6 6 11 8 13 9 5 4 5 5 8 12
21 19 17 14 11 10 9 3 16 18 14 3 4 7 11 12 19 19 13 10 9 3 2 3 6 12 8 6 10 16 17 15 15 8 19 14 6 4 2 7 7 2 5 12
17 16 16 13 12 10 7 2 4 1 10 2 4 5 4 14 14 9 9 13 7 5 3 5 10 11 8 5 15 19 19 20 15 10 8 4 6 3 2 5 8 13 14 15
16 13 12 11 10 9 10 11 6 4 2 3 4 5 6 4 6 5 2 4 3 3 4 4 7 7 8 9 17 18 19 18 15 6 2 5 10 8 8 8 9 11 12 12
15 11 9 5 6 4 10 9 13 5 4 3 4 4 6 6 3 1 1 1 3 3 4 8 5 8 9 13 17 18 17 13 13 6 10 10 10 11 10 11 14 13 12 12
14 11 4 3 7 8 12 5 3 3 4 5 6 6 6 2 4 4 2 3 3 4 7 5 7 15 21 19 19 17 11 10 11 10 10 7 8 10 12 15 11 10 11 12
11 3 3 3 4 10 3 4 4 5 4 5 5 12 11 7 5 5 5 3 3 4 4 6 4 6 12 18 23 20 17 12 8 10 11 8 10 11 11 11 12 11 12 11
9 1 1 4 4 4 4 4 4 6 5 4 5 5 5 3 3 3 3 3 4 6 3 3 3 3 11 8 10 13 14 8 7 10 6 10 12 11 11 10 11 13 16 20
5 2 1 3 4 6 5 5 4 4 4 1 1 3 2 2 3 2 3 5 5 1 3 3 2 6 5 6 10 9 9 11 10 10 12 12 13 17 13 12 18 21 19 20
3 4 5 4 5 5 5 6 5 2 3 7 6 4 4 3 5 3 4 4 3 3 3 2 3 5 7 5 7 7 10 6 5 8 13 13 13 11 20 23 22 22 18 18
3 4 5 7 6 6 6 5 6 6 7 6 3 3 3 2 2 2 3 2 3 5 2 2 5 8 4 4 5 6 9 6 8 9 11 13 14 14 16 20 20 21 20 19
3 5 4 5 5 3 1 4 6 6 6 7 2 2 2 3 2 3 3 3 2 3 3 4 6 8 4 4 4 9 8 8 9 9 13 15 14 14 16 18 18 18 18 18
4 4 5 6 5 5 5 4 5 5 5 3 3 3 2 3 2 2 3 2 2 3 4 3 5 8 3 7 8 8 8 9 9 13 14 15 19 20 17 11 13 15 15 16
Wind_Direction
235 256 258 259 260 268 232 253 224 117 178 201 201 230 232 254 262 267 256 259 271 271 281 280 275 263 258 36 352 331 360 301 242 234 255 243 263 248 231 215 245 259 243 254
246 246 244 249 253 241 284 240 260 241 211 227 231 239 242 247 260 258 259 264 252 258 267 269 274 281 294 269 197 353 9 335 328 261 236 235 241 254 253 258 198 240 250 258
233 232 239 239 243 238 231 217 265 250 220 216 250 266 261 263 253 253 260 268 263 262 259 267 275 273 266 255 131 233 271 218 248 285 280 321 325 325 309 294 239 251 246 259
229 235 234 234 234 228 219 234 237 238 181 235 236 239 249 265 283 288 273 251 253 253 266 269 265 265 271 269 148 199 185 225 268 265 267 277 284 281 260 264 265 258 258 251
239 235 234 237 229 218 223 202 226 248 269 263 249 233 245 254 267 249 265 269 258 274 290 248 259 270 279 282 286 290 232 239 233 246 257 272 278 266 268 264 264 259 278 284
248 245 238 242 231 211 225 238 260 320 266 261 258 258 255 258 266 270 277 286 290 283 280 274 269 252 261 255 261 271 212 267 251 240 250 264 269 262 260 260 261 256 262 259
248 251 250 239 234 228 234 242 267 232 254 249 258 264 262 261 265 272 274 242 259 274 291 300 282 239 250 257 252 237 245 241 242 268 250 239 245 257 266 271 266 254 259 265
239 248 249 249 248 240 234 243 229 250 266 251 258 254 262 275 279 275 278 287 235 253 269 270 268 232 245 248 250 223 207 224 251 229 254 295 290 275 279 304 301 279 288 292
236 249 251 254 250 237 235 238 236 227 261 253 264 280 283 279 276 286 280 282 281 221 268 255 265 258 256 263 259 207 205 216 207 225 250 253 251 253 245 150 276 254 270 275
238 248 252 250 242 226 221 234 221 234 258 264 266 264 271 273 277 284 279 276 267 263 237 246 241 250 264 264 265 253 245 253 233 220 235 261 263 260 254 274 274 283 329 314
235 243 242 235 230 225 213 225 222 209 233 264 269 267 254 257 241 248 268 270 243 243 244 232 237 245 250 259 253 250 251 250 254 232 232 255 236 272 263 268 253 315 314 329
233 237 227 225 224 222 211 226 230 231 226 281 301 273 253 251 251 254 261 237 272 206 198 208 4 278 244 242 264 285 248 229 243 243 250 236 270 270 333 358 345 4 331 89
227 221 217 222 223 220 214 225 236 210 234 256 248 250 250 248 245 228 200 275 221 305 279 307 205 243 240 272 270 266 253 257 237 221 254 280 305 277 110 10 316 273 249 125
209 201 215 223 226 224 224 232 241 230 274 255 265 254 231 235 240 244 244 263 169 346 280 235 251 257 219 257 277 292 277 297 287 287 268 275 285 291 147 169 240 273 130 151
195 196 210 220 224 229 238 241 241 239 250 319 310 308 279 253 245 255 254 251 265 261 243 225 240 256 267 273 259 254 267 238 230 274 275 216 247 261 30 143 169 170 164 151
192 199 210 215 222 235 241 255 240 235 233 283 288 302 288 257 228 232 255 250 250 187 258 263 257 259 279 268 260 263 275 273 200 227 236 214 152 129 234 214 148 335 208 146
195 199 206 214 222 220 231 275 349 202 199 253 281 272 244 235 243 228 227 240 245 228 216 235 256 265 288 263 257 270 275 281 281 176 157 122 165 151 212 203 173 167 200 186
189 193 198 211 227 243 263 240 224 197 110 262 258 266 281 201 230 223 234 234 240 220 236 246 249 264 252 251 258 266 264 265 273 280 139 100 122 126 120 141 133 140 160 151
176 176 182 193 214 231 250 230 213 207 186 271 232 252 272 335 232 136 80 295 236 216 227 237 228 234 231 242 250 254 263 269 281 197 141 140 135 130 133 155 175 175 139 133
165 161 171 222 218 200 146 145 201 221 214 230 248 248 256 245 179 181 202 185 228 245 220 206 223 241 242 244 250 258 246 280 284 151 166 158 151 160 175 191 168 148 149 149
176 168 227 320 179 177 221 208 211 200 238 220 240 220 230 182 247 203 206 207 236 252 202 204 231 253 238 240 241 235 241 257 221 182 173 178 170 176 181 173 161 150 148 147
189 187 191 172 226 211 209 215 209 217 243 187 232 240 230 217 214 236 183 243 220 251 137 248 245 349 314 278 269 216 217 198 160 144 183 179 170 165 171 154 139 134 128 121
183 225 275 223 198 233 217 226 218 213 196 294 271 230 219 148 193 181 232 230 237 157 246 244 18 337 5 4 77 88 103 110 133 164 190 177 156 162 136 123 111 112 117 128
222 186 256 231 187 237 217 287 318 231 223 254 262 236 192 178 180 204 232 227 270 268 255 260 28 338 332 105 129 150 147 167 197 174 114 105 98 89 96 107 118 122 127 135
265 227 243 220 244 292 317 307 291 292 293 286 289 222 197 181 236 215 277 222 239 218 258 51 6 338 48 46 91 113 86 80 73 79 92 98 101 102 101 114 123 130 135 139
253 243 262 287 291 278 314 314 298 307 296 280 222 271 225 202 236 198 230 258 271 57 26 12 338 345 350 157 93 88 78 85 93 95 103 107 112 117 118 115 123 134 142 144
249 248 242 264 270 271 276 290 295 320 306 258 251 215 253 160 214 227 228 310 25 354 358 359 318 337 32 92 94 100 109 110 110 110 111 110 114 117 117 120 129 132 137 142